Simultaneous Nadir Overpasses (SNOs) Predictions

Prediction of SNOs between LANDSAT-8 and NOAA-19 Satellite Orbit:

Table of predicted SNOs for the next 14.0 days since TLE Epoch: 12/25/2021
Index Date (LANDSAT-8) Time (LANDSAT-8) Lat,Lon (LANDSAT-8) SZA (LANDSAT-8 ) Date (NOAA-19) Time (NOAA-19) Lat,Lon (NOAA-19) SZA (NOAA-19 ) Distance(km) Time Diff (sec)
1 12/26/2021 12:47:12 80.64, 21.86 105.41 12/26/2021 12:47:22 80.64, 21.92 105.42 1.18 10
2 12/28/2021 18:20:55 -80.65, 118.55 74.70 12/28/2021 18:20:30 -80.65, 118.43 74.73 2.33 25
3 12/28/2021 19:10:22 80.63, -74.11 105.25 12/28/2021 19:11:26 80.64, -74.05 105.29 1.78 64
4 12/30/2021 23:54:38 80.63,-145.08 105.10 12/30/2021 23:53:31 80.66,-144.95 105.11 3.39 67
5 12/31/2021 00:44:05 -80.63, 22.56 74.91 12/31/2021 00:44:33 -80.64, 22.64 74.88 1.75 28
6 01/02/2022 06:17:46 80.64, 119.19 104.91 01/02/2022 06:17:34 80.66, 119.05 104.91 3.34 12
7 01/04/2022 11:51:28 -80.67,-143.87 75.28 01/04/2022 11:50:39 -80.65,-143.94 75.32 2.74 49
8 01/04/2022 12:40:55 80.64, 23.43 104.66 01/04/2022 12:41:37 80.65, 23.37 104.68 1.21 42



Historial Predications of SNOs between LANDSAT-8 and NOAA-19
